Regional Weather Roundup
Issued by NWS

Home | Current Version | Previous Version | Text Only | Print | Product List | Glossary Off
Versions: 1 2 3 4 5 6 7 8 9 10 11 12 13 14 15 16 17 18 19 20 21 22 23 24 25 26 27 28 29 30 31 32 33 34 35 36 37 38 39 40 41 42 43 44 45 46 47 48 49 50

000
ASUS43 KBIS 161202
RWRND

NORTH DAKOTA REGIONAL WEATHER ROUNDUP
NATIONAL WEATHER SERVICE BISMARCK ND
700 AM CDT MON OCT 16 2017

NOTE: "FAIR" INDICATES FEW OR NO CLOUDS BELOW 12,000 FEET WITH NO
SIGNIFICANT WEATHER AND/OR OBSTRUCTIONS TO VISIBILITY.


NDZ001>003-009>011-017-161300-
NORTHWEST NORTH DAKOTA

CITY           SKY/WX    TMP DP  RH WIND       PRES   REMARKS
WILLISTON      CLEAR     39  31  72 SW9       29.95F
6HR MIN TEMP:  31; 6HR MAX TEMP:  40;

MINOT          CLEAR     45  31  58 SW16      29.90F
MINOT AFB      CLEAR     42  31  64 SW15      29.88F
$$

NDZ018>021-031>035-040>046-161300-
SOUTHWEST NORTH DAKOTA

CITY           SKY/WX    TMP DP  RH WIND       PRES   REMARKS
BISMARCK       CLEAR     33  27  78 CALM      30.04F
6HR MIN TEMP:  28; 6HR MAX TEMP:  36;

DICKINSON      CLEAR     43  28  55 W9        30.00S
GARRISON         N/A     38  32  79 S10       29.96F
6HR MIN TEMP:  35; 6HR MAX TEMP:  40;

HETTINGER ARPT CLEAR     38  26  62 CALM      30.08F
$$

NDZ004>008-012>016-024-026-027-054-161300-
NORTHEAST NORTH DAKOTA

CITY           SKY/WX    TMP DP  RH WIND       PRES   REMARKS
GRAND FORKS    PTCLDY    33  29  85 S10       30.04F
GRND FRKS AFB  CLEAR     35  29  78 SW8       30.03F
DEVILS LAKE    CLEAR     44  32  62 S16       29.99F
$$

NDZ022-023-025-028>030-036>039-047>053-161300-
SOUTHEAST NORTH DAKOTA

CITY           SKY/WX    TMP DP  RH WIND       PRES   REMARKS
FARGO          CLEAR     35  31  85 S8        30.12F
6HR MIN TEMP:  32; 6HR MAX TEMP:  36;

JAMESTOWN      CLEAR     37  30  75 S12       30.05F
$$





USA.gov is the U.S. government's official web portal to all federal, state and local government web resources and services.